WN4MDN Weather Reports


Display with metric or nautical units.
time (UTC)temp
F
wind
direction
speed
MPH
gust
MPH
rain 1hr
in
rain 24hr
in
rain mn
in
humidity
%
barometer
mb
20260906233104 81 317 1.0 3.0 0.00 0.42 0.00 77 1011.1
20260906232536 82 319 2.0 3.0 0.00 0.42 0.00 76 1011.0
20260906232034 83 318 2.0 3.0 0.00 0.42 0.00 75 1011.0
20260906231559 83 327 1.0 3.0 0.00 0.42 0.00 73 1011.1
20260906231031 83 323 2.0 6.0 0.00 0.42 0.00 72 1011.0
20260906230537 84 279 2.0 8.0 0.00 0.42 0.00 71 1011.0
20260906230105 83 287 3.0 8.0 0.00 0.42 0.00 71 1010.8
20260906225534 83 288 3.0 7.0 0.00 0.43 0.00 71 1010.6
20260906225034 83 279 2.0 8.0 0.00 0.43 0.00 72 1010.7
20260906224558 83 288 3.0 8.0 0.00 0.43 0.00 73 1010.6
20260906224034 82 316 2.0 7.0 0.00 0.43 0.00 73 1010.8
20260906223534 82 288 3.0 6.0 0.00 0.43 0.00 73 1010.8
20260906223059 82 288 3.0 6.0 0.00 0.43 0.00 74 1010.9
20260906222534 82 284 3.0 6.0 0.00 0.43 0.00 73 1010.8
20260906222034 82 312 2.0 6.0 0.00 0.43 0.00 72 1010.6
20260906221556 82 300 2.0 9.0 0.00 0.43 0.00 71 1010.4
20260906221034 82 275 4.0 10.0 0.00 0.43 0.00 70 1010.3
20260906220534 83 300 5.0 10.0 0.00 0.43 0.00 69 1010.3
20260906220054 84 298 4.0 10.0 0.00 0.43 0.00 69 1010.2
20260906215534 85 277 5.0 10.0 0.00 0.45 0.00 66 1010.1
20260906215034 87 269 4.0 10.0 0.00 0.45 0.00 64 1010.0
20260906214600 88 225 2.0 8.0 0.00 0.45 0.00 64 1009.9
20260906214034 89 212 5.0 8.0 0.00 0.45 0.00 59 1009.8
20260906213533 90 227 4.0 8.0 0.00 0.45 0.00 58 1010.0
20260906213058 91 202 1.0 5.0 0.00 0.45 0.00 59 1010.1
20260906212531 91 240 1.0 6.0 0.00 0.45 0.00 57 1010.3
20260906212034 90 279 3.0 6.0 0.00 0.45 0.00 57 1010.3
20260906211600 91 233 4.0 7.0 0.00 0.45 0.00 56 1010.4
20260906211034 90 219 2.0 7.0 0.00 0.45 0.00 56 1010.4
20260906210536 90 238 3.0 6.0 0.00 0.45 0.00 56 1010.4
20260906210107 91 227 1.0 7.0 0.00 0.45 0.00 57 1010.4
20260906205535 91 234 2.0 8.0 0.00 0.45 0.00 57 1010.4
20260906205033 91 226 4.0 8.0 0.00 0.45 0.00 54 1010.4
20260906204605 91 288 3.0 8.0 0.00 0.45 0.00 54 1010.5
20260906204038 91 194 3.0 7.0 0.00 0.45 0.00 55 1010.6
20260906203537 91 211 3.0 6.0 0.00 0.45 0.00 54 1010.9
20260906203102 92 233 3.0 6.0 0.00 0.45 0.00 54 1010.9
20260906202534 92 221 2.0 6.0 0.00 0.45 0.00 56 1011.0
20260906202034 92 198 3.0 6.0 0.00 0.45 0.00 54 1011.0
20260906201557 92 280 2.0 8.0 0.00 0.45 0.00 56 1011.1
20260906201038 92 184 2.0 8.0 0.00 0.45 0.00 53 1011.2
20260906200534 92 288 2.0 7.0 0.00 0.45 0.00 55 1011.2
20260906200059 92 332 3.0 7.0 0.00 0.45 0.00 53 1011.2
20260906195533 93 303 1.0 4.0 0.00 0.45 0.00 54 1011.2
20260906195038 93 284 2.0 9.0 0.00 0.45 0.00 54 1011.2
20260906194600 93 300 1.0 9.0 0.00 0.45 0.00 53 1011.2
20260906194035 93 287 3.0 7.0 0.00 0.45 0.00 54 1011.2
20260906193533 93 280 1.0 5.0 0.00 0.45 0.00 53 1011.3
20260906193101 93 283 1.0 6.0 0.00 0.45 0.00 54 1011.4
20260906192535 93 229 1.0 6.0 0.00 0.45 0.00 53 1011.6
20260906192034 92 287 3.0 6.0 0.00 0.45 0.00 54 1011.6
20260906191553 92 326 1.0 4.0 0.00 0.45 0.00 55 1011.6
20260906191034 92 186 1.0 5.0 0.00 0.45 0.00 54 1011.7
20260906190534 92 225 2.0 5.0 0.00 0.45 0.00 59 1011.7
20260906190057 91 303 1.0 6.0 0.00 0.45 0.00 56 1011.9
20260906185534 91 262 1.0 7.0 0.00 0.45 0.00 58 1012.0
20260906185034 91 238 3.0 7.0 0.00 0.45 0.00 56 1012.0
20260906184558 91 285 1.0 6.0 0.00 0.45 0.00 58 1012.1
20260906184034 91 288 2.0 6.0 0.00 0.45 0.00 57 1012.2
20260906183534 91 300 2.0 3.0 0.00 0.45 0.00 62 1012.3
20260906183107 90 270 1.0 8.0 0.00 0.45 0.00 60 1012.4
20260906182536 90 269 1.0 8.0 0.00 0.45 0.00 61 1012.5
20260906182034 91 277 3.0 8.0 0.00 0.45 0.00 58 1012.6
20260906181600 91 281 3.0 7.0 0.00 0.45 0.00 58 1012.5
20260906181034 91 261 3.0 7.0 0.00 0.45 0.00 59 1012.4
20260906180532 90 225 1.0 9.0 0.00 0.45 0.00 59 1012.4
20260906180116 90 285 6.0 8.0 0.00 0.45 0.00 58 1012.6
20260906175533 90 290 4.0 8.0 0.00 0.45 0.00 60 1012.5
20260906175037 90 280 4.0 9.0 0.00 0.45 0.00 61 1012.4
20260906174557 89 288 4.0 10.0 0.00 0.45 0.00 60 1012.4
20260906174031 89 267 4.0 10.0 0.00 0.45 0.00 60 1012.5
20260906173532 90 288 2.0 8.0 0.00 0.45 0.00 61 1012.5
20260906173050 90 223 4.0 8.0 0.00 0.45 0.00 63 1012.5
20260906172535 90 309 2.0 7.0 0.00 0.45 0.00 61 1012.7
20260906172034 90 235 2.0 9.0 0.00 0.45 0.00 63 1012.7
20260906171604 89 284 4.0 10.0 0.00 0.45 0.00 64 1012.7
20260906171034 89 326 4.0 10.0 0.00 0.45 0.00 63 1012.8
20260906170535 89 306 6.0 10.0 0.00 0.45 0.00 59 1012.9
20260906170117 89 317 3.0 10.0 0.00 0.45 0.00 66 1012.8
20260906165535 89 300 4.0 10.0 0.00 0.45 0.00 65 1012.8
20260906165034 88 318 4.0 9.0 0.00 0.45 0.00 64 1012.8
20260906164554 88 326 4.0 9.0 0.00 0.45 0.00 67 1013.0
20260906164034 88 300 6.0 10.0 0.00 0.45 0.00 65 1013.1
20260906163534 88 267 3.0 10.0 0.00 0.45 0.00 65 1013.2
20260906163114 88 290 6.0 11.0 0.00 0.45 0.00 67 1013.3
20260906162537 88 284 4.0 11.0 0.00 0.45 0.00 65 1013.3
20260906162033 87 294 2.0 11.0 0.00 0.45 0.00 68 1013.3
20260906161559 87 323 6.0 10.0 0.00 0.45 0.00 68 1013.4
20260906161034 87 299 4.0 9.0 0.00 0.45 0.00 70 1013.4
20260906160533 88 285 3.0 8.0 0.00 0.45 0.00 72 1013.3
20260906160059 87 321 4.0 8.0 0.00 0.45 0.00 71 1013.5
20260906155536 87 290 2.0 9.0 0.00 0.45 0.00 73 1013.6
20260906155036 87 322 5.0 10.0 0.00 0.45 0.00 73 1013.7
20260906154555 86 296 6.0 10.0 0.00 0.45 0.00 73 1013.8
20260906154034 86 310 4.0 9.0 0.00 0.45 0.00 74 1013.8
20260906153533 86 315 5.0 9.0 0.00 0.45 0.00 73 1013.9
20260906153129 86 345 3.0 8.0 0.00 0.45 0.00 76 1013.9
20260906152535 85 9 4.0 9.0 0.00 0.45 0.00 74 1014.0
20260906152036 85 309 3.0 9.0 0.00 0.45 0.00 77 1014.0
20260906151606 85 286 2.0 9.0 0.00 0.45 0.00 77 1014.0
20260906151033 85 326 4.0 9.0 0.00 0.45 0.00 77 1014.0
20260906150535 84 303 3.0 8.0 0.00 0.45 0.00 79 1014.1
20260906150113 84 275 4.0 9.0 0.00 0.45 0.00 78 1014.2
20260906145534 84 300 3.0 9.0 0.00 0.45 0.00 78 1014.1
20260906145036 84 289 3.0 8.0 0.00 0.45 0.00 80 1014.1
20260906144602 84 327 4.0 8.0 0.00 0.45 0.00 81 1014.1
20260906144035 83 279 3.0 8.0 0.00 0.45 0.00 82 1014.1
20260906143534 83 331 4.0 10.0 0.00 0.45 0.00 80 1014.1
20260906143104 83 317 4.0 10.0 0.00 0.45 0.00 82 1014.2
20260906142538 82 291 4.0 8.0 0.00 0.45 0.00 81 1014.1
20260906142039 82 336 4.0 8.0 0.00 0.45 0.00 83 1014.1
20260906141559 82 286 3.0 8.0 0.00 0.45 0.00 83 1014.1
20260906141035 81 284 3.0 8.0 0.00 0.45 0.00 85 1014.2
20260906140536 81 296 3.0 7.0 0.00 0.45 0.00 84 1014.1
20260906135536 81 288 2.0 7.0 0.00 0.45 0.00 86 1014.2
20260906135036 80 301 3.0 7.0 0.00 0.45 0.00 87 1014.2
20260906134559 79 277 2.0 7.0 0.00 0.45 0.00 85 1014.3
20260906134039 79 281 2.0 7.0 0.00 0.45 0.00 86 1014.3
20260906133537 79 288 3.0 8.0 0.00 0.45 0.00 87 1014.2
20260906133124 78 285 3.0 9.0 0.00 0.45 0.00 87 1014.3
20260906132541 78 290 5.0 9.0 0.00 0.45 0.00 86 1014.2
20260906132037 78 273 4.0 7.0 0.00 0.45 0.00 88 1014.2
20260906131604 77 285 3.0 6.0 0.00 0.45 0.00 88 1014.3
20260906131038 77 286 1.0 4.0 0.00 0.45 0.00 89 1014.3
20260906130536 77 269 1.0 6.0 0.00 0.45 0.00 89 1014.2
20260906130114 77 280 3.0 6.0 0.00 0.45 0.00 89 1014.3
20260906125536 77 282 2.0 5.0 0.00 0.45 0.00 90 1014.2
20260906125035 76 281 1.0 6.0 0.00 0.45 0.00 91 1014.2
20260906124559 76 280 2.0 6.0 0.00 0.45 0.00 91 1014.2
20260906124036 75 289 1.0 3.0 0.00 0.45 0.00 93 1014.1
20260906123536 75 290 1.0 3.0 0.00 0.45 0.00 93 1014.2
20260906123059 74 275 2.0 3.0 0.00 0.45 0.00 93 1014.2
20260906122533 74 240 0.0 2.0 0.00 0.45 0.00 94 1014.3
20260906122034 74 232 0.0 2.0 0.00 0.45 0.00 95 1014.2
20260906121606 74 232 0.0 2.0 0.00 0.45 0.00 95 1014.1
20260906121034 73 232 0.0 2.0 0.00 0.45 0.00 95 1013.9
20260906120534 73 232 1.0 2.0 0.00 0.45 0.00 96 1013.8
20260906120100 73 240 0.0 2.0 0.00 0.45 0.00 96 1013.8
20260906115534 73 0 0.0 2.0 0.00 0.45 0.00 96 1013.7
20260906115034 72 0 0.0 2.0 0.00 0.45 0.00 96 1013.7
20260906114602 72 240 0.0 2.0 0.00 0.45 0.00 96 1013.7
20260906114035 71 0 0.0 2.0 0.00 0.45 0.00 96 1013.6
20260906113534 71 0 0.0 2.0 0.00 0.45 0.00 96 1013.3
20260906113100 71 240 0.0 2.0 0.00 0.45 0.00 96 1013.4
20260906112534 70 237 1.0 2.0 0.00 0.45 0.00 96 1013.3
20260906112034 70 0 1.0 1.0 0.00 0.45 0.00 95 1013.3
20260906111618 70 204 0.0 2.0 0.00 0.45 0.00 95 1013.2
20260906111034 70 204 0.0 2.0 0.00 0.45 0.00 95 1013.1
20260906110534 70 204 0.0 2.0 0.00 0.45 0.00 95 1013.0
20260906110100 70 0 0.0 0.0 0.00 0.45 0.00 95 1012.9
20260906105534 70 0 0.0 1.0 0.00 0.45 0.00 95 1012.8
20260906105034 70 0 0.0 1.0 0.00 0.45 0.00 95 1012.8
20260906104557 70 0 0.0 1.0 0.00 0.45 0.00 95 1012.8
20260906104034 70 204 1.0 2.0 0.00 0.45 0.00 95 1012.6
20260906103534 70 204 1.0 2.0 0.00 0.45 0.00 95 1012.5
20260906103100 70 0 0.0 2.0 0.00 0.45 0.00 95 1012.5
20260906102534 70 204 1.0 2.0 0.00 0.45 0.00 95 1012.5
20260906102035 70 204 1.0 3.0 0.00 0.45 0.00 95 1012.3
20260906101556 70 204 2.0 3.0 0.00 0.45 0.00 95 1012.4
20260906101037 70 204 2.0 2.0 0.00 0.45 0.00 95 1012.3
20260906100532 70 202 1.0 2.0 0.00 0.45 0.00 95 1012.2
20260906100057 70 94 0.0 2.0 0.00 0.45 0.00 95 1012.2
20260906095540 70 94 0.0 2.0 0.00 0.45 0.00 95 1012.1
20260906095034 70 94 1.0 2.0 0.00 0.45 0.00 95 1012.0
20260906094604 70 51 1.0 2.0 0.00 0.45 0.00 95 1012.0
20260906094034 70 0 0.0 2.0 0.00 0.45 0.00 95 1011.9
20260906093534 70 0 0.0 2.0 0.00 0.45 0.00 95 1011.8
20260906093102 70 51 0.0 2.0 0.00 0.45 0.00 95 1011.8
20260906092534 70 0 0.0 0.0 0.00 0.45 0.00 95 1011.7
20260906092036 70 0 0.0 2.0 0.00 0.45 0.00 95 1011.5
20260906091557 71 0 0.0 2.0 0.00 0.45 0.00 95 1011.5
20260906091034 71 51 0.0 2.0 0.00 0.45 0.00 95 1011.5
20260906090537 71 51 0.0 2.0 0.00 0.45 0.00 95 1011.5
20260906090101 71 0 0.0 2.0 0.00 0.45 0.00 95 1011.5
20260906085538 71 0 0.0 1.0 0.00 0.45 0.00 95 1011.4
20260906085036 71 0 0.0 2.0 0.00 0.45 0.00 95 1011.3
20260906084552 71 0 0.0 2.0 0.00 0.45 0.00 95 1011.3
20260906084034 71 51 0.0 2.0 0.00 0.45 0.00 95 1011.3
20260906083536 71 0 0.0 0.0 0.00 0.45 0.00 95 1011.2
20260906083100 71 0 0.0 0.0 0.00 0.45 0.00 95 1011.3
20260906082535 71 0 0.0 2.0 0.00 0.45 0.00 95 1011.3
20260906082038 71 0 0.0 2.0 0.00 0.45 0.00 95 1011.4
20260906081557 71 0 0.0 2.0 0.00 0.45 0.00 95 1011.3
20260906081035 70 51 0.0 2.0 0.00 0.45 0.00 95 1011.4
20260906080534 70 0 0.0 0.0 0.00 0.45 0.00 95 1011.4
20260906075535 70 0 0.0 0.0 0.00 0.45 0.00 95 1011.3
20260906075035 70 0 0.0 0.0 0.00 0.45 0.00 95 1011.3
20260906074554 70 0 0.0 2.0 0.00 0.45 0.00 95 1011.4
20260906074040 70 0 0.0 2.0 0.00 0.45 0.00 95 1011.6
20260906073536 70 0 0.0 2.0 0.00 0.45 0.00 95 1011.6
20260906073100 70 0 0.0 1.0 0.00 0.45 0.00 95 1011.6
20260906072537 70 51 0.0 1.0 0.00 0.45 0.00 95 1011.7
20260906072036 70 51 1.0 2.0 0.00 0.45 0.00 95 1011.8
20260906071601 70 51 0.0 2.0 0.00 0.45 0.00 95 1011.9
20260906071036 70 0 0.0 2.0 0.00 0.45 0.00 95 1011.9
20260906070536 70 51 0.0 2.0 0.00 0.45 0.00 95 1012.0
20260906070105 70 51 1.0 2.0 0.00 0.45 0.00 95 1012.2
20260906065535 70 136 1.0 2.0 0.00 0.45 0.00 95 1012.1
20260906065037 71 136 0.0 2.0 0.00 0.45 0.00 95 1012.1
20260906064558 71 0 0.0 2.0 0.00 0.45 0.00 95 1012.1
20260906064038 71 0 0.0 2.0 0.00 0.45 0.00 95 1012.1
20260906063536 71 136 0.0 2.0 0.00 0.45 0.00 95 1012.3
20260906063100 71 0 0.0 2.0 0.00 0.45 0.00 95 1012.3
20260906062536 71 136 0.0 2.0 0.00 0.45 0.00 95 1012.5
20260906062035 71 0 0.0 0.0 0.00 0.45 0.00 95 1012.6
20260906061603 70 0 0.0 1.0 0.00 0.45 0.00 95 1012.6
20260906061033 70 0 0.0 1.0 0.00 0.45 0.00 95 1012.8
20260906060533 70 0 0.0 1.0 0.00 0.45 0.00 94 1013.0
20260906060057 70 0 0.0 0.0 0.00 0.45 0.00 94 1013.1
20260906055534 70 0 0.0 2.0 0.00 0.45 0.00 94 1013.3
20260906055034 70 0 0.0 2.0 0.00 0.45 0.00 94 1013.4
20260906054606 71 0 0.0 2.0 0.00 0.45 0.00 94 1013.5
20260906054034 71 136 0.0 2.0 0.00 0.45 0.00 94 1013.5
20260906053534 71 136 1.0 2.0 0.00 0.45 0.00 94 1013.4
20260906053100 71 0 0.0 2.0 0.00 0.45 0.00 95 1013.5
20260906052534 71 159 0.0 2.0 0.00 0.45 0.00 94 1013.6
20260906052033 71 0 0.0 2.0 0.00 0.45 0.00 94 1013.5
20260906051613 71 159 0.0 2.0 0.00 0.45 0.00 94 1013.6
20260906051034 71 159 0.0 1.0 0.00 0.45 0.00 94 1013.6
20260906050536 71 159 0.0 1.0 0.00 0.45 0.00 94 1013.7
20260906050101 71 159 1.0 2.0 0.00 0.45 0.00 94 1013.7
20260906045534 71 159 1.0 2.0 0.00 0.45 0.00 94 1013.7
20260906045036 71 159 1.0 2.0 0.00 0.45 0.00 94 1013.7
20260906044603 71 159 0.0 1.0 0.00 0.45 0.00 94 1013.7
20260906044035 71 0 0.0 1.0 0.00 0.45 0.00 94 1013.6
20260906043534 71 0 0.0 1.0 0.00 0.45 0.00 94 1013.6
20260906043052 71 0 0.0 1.0 0.00 0.45 0.00 94 1013.6
20260906042534 71 159 1.0 2.0 0.00 0.45 0.00 94 1013.6
20260906042036 71 159 0.0 2.0 0.00 0.45 0.00 94 1013.6
20260906041557 71 0 0.0 1.0 0.00 0.45 0.00 94 1013.5
20260906041034 71 159 0.0 2.0 0.00 0.45 0.00 94 1013.5
20260906040533 71 159 0.0 2.0 0.00 0.45 0.00 94 1013.5
20260906040137 71 0 0.0 2.0 0.00 0.45 0.00 94 1013.5
20260906035533 71 159 0.0 2.0 0.00 0.45 0.45 94 1013.6
20260906035035 71 159 0.0 2.0 0.00 0.45 0.45 94 1013.7
20260906034604 71 159 1.0 2.0 0.00 0.45 0.45 94 1013.8
20260906034032 71 177 1.0 2.0 0.00 0.45 0.45 94 1013.8
20260906033534 71 0 0.0 2.0 0.00 0.45 0.45 94 1013.8
20260906033104 71 187 1.0 2.0 0.00 0.45 0.45 94 1013.8
20260906032537 71 186 1.0 2.0 0.00 0.45 0.45 94 1013.7
20260906032034 71 180 1.0 2.0 0.00 0.45 0.45 94 1013.7
20260906031556 71 180 1.0 2.0 0.00 0.45 0.45 94 1013.8
20260906031037 71 186 1.0 2.0 0.00 0.45 0.45 94 1013.8
20260906030534 71 0 1.0 2.0 0.00 0.45 0.45 94 1013.8
20260906025534 71 186 0.0 2.0 0.00 0.45 0.45 94 1013.7
20260906025033 71 186 0.0 2.0 0.00 0.45 0.45 94 1013.7
20260906024614 71 0 0.0 2.0 0.00 0.45 0.45 94 1013.7
20260906024034 70 0 0.0 2.0 0.00 0.45 0.45 94 1013.7
20260906023533 70 0 0.0 2.0 0.00 0.45 0.45 94 1013.6
20260906023106 70 186 0.0 2.0 0.01 0.45 0.45 94 1013.6
20260906022534 70 0 0.0 1.0 0.01 0.45 0.45 93 1013.6
20260906022034 70 0 0.0 1.0 0.01 0.45 0.45 93 1013.6
20260906021556 70 0 0.0 2.0 0.01 0.45 0.45 93 1013.6
20260906021033 70 186 0.0 2.0 0.01 0.45 0.45 93 1013.5
20260906020534 71 186 0.0 2.0 0.01 0.45 0.45 93 1013.6
20260906020103 71 186 0.0 2.0 0.01 0.45 0.45 93 1013.6
20260906015536 71 186 1.0 4.0 0.02 0.45 0.45 92 1013.7
20260906015034 71 186 1.0 5.0 0.02 0.45 0.45 92 1013.6
20260906014600 71 198 1.0 5.0 0.02 0.45 0.45 92 1013.7
20260906014034 71 192 3.0 5.0 0.02 0.45 0.45 93 1013.8
20260906013533 72 184 3.0 5.0 0.03 0.45 0.45 93 1013.8
20260906013101 72 211 1.0 2.0 0.02 0.44 0.44 93 1013.9
20260906012533 72 140 0.0 3.0 0.02 0.44 0.44 93 1013.9
20260906012033 72 0 1.0 4.0 0.03 0.44 0.44 94 1014.0
20260906011556 72 130 2.0 4.0 0.04 0.44 0.44 93 1013.8
20260906011034 72 174 2.0 4.0 0.05 0.44 0.44 93 1013.8
20260906010535 71 175 1.0 2.0 0.08 0.44 0.44 93 1013.9
20260906010055 71 220 0.0 4.0 0.09 0.44 0.44 93 1014.0
20260906005533 71 220 1.0 4.0 0.09 0.43 0.43 93 1013.8
20260906005034 71 223 3.0 4.0 0.10 0.43 0.43 93 1013.5
20260906004600 71 211 3.0 4.0 0.12 0.43 0.43 93 1013.7
20260906004034 72 167 0.0 3.0 0.15 0.43 0.43 94 1014.1
20260906003535 72 167 0.0 3.0 0.23 0.42 0.42 94 1014.1
20260906003101 71 164 1.0 5.0 0.33 0.42 0.42 94 1014.3
20260906002535 71 182 2.0 5.0 0.39 0.42 0.42 94 1014.5
20260906002037 71 161 2.0 4.0 0.38 0.41 0.41 93 1014.8
20260906001607 71 146 2.0 4.0 0.37 0.40 0.40 93 1015.2
20260906001033 71 47 0.0 16.0 0.36 0.39 0.39 93 1015.1
20260906000535 71 47 2.0 16.0 0.33 0.36 0.36 93 1015.1
20260906000053 71 339 10.0 16.0 0.31 0.34 0.34 93 1015.1
20260905235534 71 306 6.0 15.0 0.31 0.34 0.34 92 1014.5
20260905235034 71 188 8.0 15.0 0.30 0.33 0.33 93 1013.3
20260905234601 71 151 6.0 10.0 0.27 0.30 0.30 92 1013.4
20260905234033 71 222 5.0 10.0 0.24 0.27 0.27 92 1013.5
20260905233534 72 197 7.0 10.0 0.16 0.19 0.19 91 1013.6